1485615601.19,31272,14.0,73808.5,0.79,-30.45,-30.55,0,*47
1485615602.45,31273,14.0,73812.0,0.79,-30.61,-30.67,0,*41
1485615603.69,31274,14.0,73810.8,0.79,-30.67,-30.67,0,*40
1485615604.92,31275,14.0,73810.8,0.79,-30.67,-30.67,0,*41
1485615606.13,31276,14.0,73812.0,0.77,-30.67,-30.67,0,*4C
1485615607.37,31277,14.0,73812.3,0.73,-30.61,-30.73,0,*4A
1485615608.6,31278,14.0,73810.3,0.77,-30.45,-30.61,0,*44
1485615609.82,31279,14.0,73808.5,0.77,-30.45,-30.61,0,*45
1485615611.04,31280,14.0,73810.5,0.77,-30.39,-30.45,0,*4E
1485615612.28,31281,14.0,73808.5,0.73,-30.51,-30.61,0,*43
1485615613.52,31282,14.0,73808.3,0.73,-30.61,-30.61,0,*43
1485615614.76,31283,14.0,73808.3,0.73,-30.51,-30.61,0,*41
1485615615.97,31284,14.0,73808.3,0.73,-30.45,-30.61,0,*43
1485615617.21,31285,14.0,73808.3,0.73,-30.61,-30.61,0,*44
1485615618.42,31286,14.0,73812.3,0.73,-30.45,-30.51,0,*42
1485615619.63,31287,14.0,73814.0,0.73,-30.33,-30.61,0,*41
1485615620.87,31288,14.0,73808.5,0.77,-30.39,-30.55,0,*47
1485615622.08,31289,14.0,73810.8,0.73,-30.45,-30.51,0,*4D
1485615623.26,31290,14.0,73810.5,0.73,-30.33,-30.45,0,*41
1485615624.47,31291,14.0,73808.0,0.73,-30.45,-30.61,0,*47
1485615625.66,31292,13.94,73806.3,0.73,-30.45,-30.33,0,*43
1485615626.84,31293,14.0,73810.0,0.73,-30.33,-30.45,0,*42
1485615628.05,31294,14.0,73808.5,0.73,-30.45,-30.51,0,*41
1485615629.29,31295,14.0,73808.5,0.73,-30.51,-30.61,0,*46
1485615630.5,31296,14.0,73812.0,0.69,-30.55,-30.67,0,*4C
1485615631.73,31297,14.0,73808.5,0.69,-30.73,-30.67,0,*49
1485615632.95,31298,14.0,73808.5,0.69,-30.73,-30.67,0,*46
1485615634.2,31299,14.0,73812.3,0.69,-30.73,-30.73,0,*42
1485615635.43,31300,14.0,73810.3,0.69,-30.51,-30.55,0,*47
1485615636.7,31301,14.0,73808.0,0.67,-30.55,-30.73,0,*48
1485615637.93,31302,14.0,73810.0,0.67,-30.45,-30.55,0,*4E
1485615639.14,31303,14.0,73810.3,0.69,-30.23,-30.51,0,*45
1485615640.38,31304,14.0,73812.5,0.67,-30.27,-30.39,0,*46
1485615641.63,31305,14.0,73808.3,0.67,-30.27,-30.39,0,*47
1485615642.87,31306,14.0,73812.5,0.67,-30.27,-30.39,0,*44
1485615644.13,31307,14.0,73810.8,0.67,-30.39,-30.39,0,*4A
1485615645.38,31308,14.0,73810.8,0.67,-30.39,-30.39,0,*45
1485615646.62,31309,14.0,73810.8,0.67,-30.39,-30.45,0,*4F
1485615647.84,31310,14.0,73810.0,0.67,-30.27,-30.45,0,*48
1485615649.1,31311,14.0,73812.8,0.67,-30.55,-30.55,0,*4D
1485615650.37,31312,14.0,73814.0,0.67,-30.61,-30.61,0,*4E
1485615651.64,31313,14.0,73812.5,0.67,-30.61,-30.73,0,*4C
1485615652.9,31314,14.0,73812.8,0.67,-30.55,-30.61,0,*4F
1485615654.14,31315,14.0,73810.5,0.65,-30.61,-30.73,0,*48
1485615655.41,31316,14.0,73814.5,0.63,-30.77,-30.73,0,*4A
1485615656.69,31317,14.0,73808.8,0.67,-30.77,-30.73,0,*4F
1485615657.96,31318,14.0,73810.8,0.67,-30.73,-30.73,0,*44
1485615659.23,31319,14.0,73814.3,0.67,-30.61,-30.73,0,*46
1485615660.5,31320,14.0,73810.0,0.63,-30.77,-30.77,0,*4B
1485615661.78,31321,14.0,73810.5,0.67,-30.73,-30.73,0,*4E
1485615663.02,31322,14.0,73808.8,0.65,-30.61,-30.73,0,*4C
1485615664.27,31323,14.0,73808.8,0.63,-30.77,-30.83,0,*43
1485615665.52,31324,14.0,73812.3,0.63,-30.77,-30.83,0,*44
1485615666.74,31325,14.0,73810.5,0.63,-30.67,-30.83,0,*44
1485615667.98,31326,14.0,73810.0,0.63,-30.51,-30.67,0,*48
1485615669.23,31327,14.0,73808.0,0.63,-30.51,-30.67,0,*49
1485615670.47,31328,14.0,73808.5,0.63,-30.61,-30.67,0,*45
1485615671.72,31329,14.0,73806.8,0.59,-30.73,-30.83,0,*44
1485615672.97,31330,14.0,73812.3,0.61,-30.77,-30.77,0,*48
1485615674.22,31331,14.0,73812.8,0.59,-30.67,-30.73,0,*47
1485615675.44,31332,14.0,73810.8,0.61,-30.61,-30.67,0,*4C
1485615676.68,31333,14.0,73808.5,0.59,-30.55,-30.83,0,*4B
1485615677.92,31334,14.0,73810.8,0.59,-30.67,-30.73,0,*42
1485615679.18,31335,14.0,73810.8,0.59,-30.55,-30.55,0,*46
1485615680.42,31336,14.0,73812.0,0.61,-30.51,-30.61,0,*4D
1485615681.66,31337,14.0,73808.5,0.59,-30.55,-30.67,0,*45
1485615682.87,31338,14.0,73810.3,0.61,-30.45,-30.51,0,*45
1485615684.11,31339,14.0,73810.3,0.59,-30.33,-30.39,0,*40
1485615685.3,31340,14.0,73810.8,0.61,-30.27,-30.45,0,*4B
1485615686.51,31341,14.0,73810.3,0.57,-30.45,-30.61,0,*4D
1485615687.72,31342,14.0,73808.3,0.59,-30.23,-30.33,0,*47
1485615688.94,31343,14.0,73808.8,0.59,-30.23,-30.33,0,*46
1485615690.15,31344,14.0,73810.3,0.59,-30.23,-30.33,0,*41
1485615691.37,31345,14.0,73814.3,0.59,-30.23,-30.33,0,*40
1485615692.6,31346,14.0,73810.5,0.59,-30.33,-30.39,0,*48
1485615693.79,31347,14.0,73810.8,0.57,-30.27,-30.27,0,*4D
1485615695.02,31348,14.0,73808.8,0.57,-30.39,-30.55,0,*48
1485615696.21,31349,14.0,73810.8,0.57,-30.27,-30.45,0,*47
1485615697.42,31350,14.0,73808.8,0.57,-30.45,-30.73,0,*4E
1485615698.69,31351,14.0,73812.0,0.55,-30.61,-30.61,0,*48
1485615699.93,31352,14.0,73808.3,0.57,-30.55,-30.61,0,*4E
1485615701.16,31353,14.0,73808.5,0.57,-30.55,-30.55,0,*48
1485615702.37,31354,14.0,73812.3,0.57,-30.45,-30.61,0,*49
1485615703.55,31355,14.0,73812.3,0.57,-30.45,-30.45,0,*4E
1485615704.76,31356,14.0,73812.5,0.57,-30.27,-30.39,0,*42
1485615705.97,31357,14.0,73808.3,0.55,-30.23,-30.11,0,*4F
1485615707.18,31358,14.0,73808.5,0.57,-30.11,-30.05,0,*46
1485615708.41,31359,14.0,73810.3,0.57,-30.55,-30.55,0,*42
1485615709.59,31360,14.0,73810.3,0.57,-30.45,-30.45,0,*48
1485615710.78,31361,14.0,73808.0,0.57,-30.27,-30.45,0,*4D
1485615712.0,31362,14.0,73812.0,0.55,-30.27,-30.27,0,*48
1485615713.18,31363,14.0,73814.5,0.57,-30.23,-30.11,0,*4A
1485615714.38,31364,14.0,73810.3,0.57,-30.39,-30.45,0,*47
1485615715.57,31365,14.0,73810.5,0.57,-30.27,-30.27,0,*4D
1485615716.78,31366,14.0,73808.0,0.55,-30.23,-30.23,0,*4C
1485615717.96,31367,14.0,73812.5,0.57,-30.23,-30.11,0,*4E
1485615719.17,31368,14.0,73812.5,0.57,-30.23,-30.39,0,*4B
1485615720.35,31369,14.0,73808.3,0.57,-30.11,-30.23,0,*40
1485615721.56,31370,14.0,73810.8,0.57,-30.05,-30.23,0,*4D
1485615722.77,31371,14.0,73812.3,0.57,-30.05,-30.23,0,*4C
1485615723.96,31372,14.0,73808.0,0.57,-30.11,-30.23,0,*4A
1485615725.14,31373,14.0,73808.8,0.57,-30.23,-30.23,0,*4A
1485615726.32,31374,14.0,73810.3,0.57,-30.11,-30.23,0,*4C
1485615727.51,31375,14.0,73810.3,0.57,-30.11,-30.23,0,*4D
1485615728.72,31376,14.0,73814.0,0.55,-30.23,-30.27,0,*49
1485615729.93,31377,14.0,73810.3,0.55,-30.23,-30.27,0,*48
1485615731.14,31378,14.0,73808.3,0.55,-30.23,-30.27,0,*47
1485615732.35,31379,14.0,73808.0,0.55,-30.23,-30.27,0,*46
1485615733.56,31380,14.0,73812.8,0.55,-30.23,-30.27,0,*40
1485615734.82,31381,14.0,73812.5,0.55,-30.39,-30.39,0,*45
1485615736.01,31382,14.0,73808.5,0.57,-30.27,-30.45,0,*40
1485615737.24,31383,14.0,73814.5,0.55,-30.45,-30.55,0,*46
1485615738.45,31384,14.0,73812.0,0.57,-30.45,-30.55,0,*43
1485615739.71,31385,14.0,73808.0,0.55,-30.61,-30.61,0,*41
1485615740.95,31386,14.0,73808.3,0.57,-30.61,-30.73,0,*43
1485615742.18,31387,14.0,73810.0,0.53,-30.67,-30.77,0,*44
1485615743.4,31388,14.0,73812.5,0.53,-30.77,-30.83,0,*41
1485615744.65,31389,14.0,73812.5,0.51,-30.77,-30.83,0,*42
1485615745.87,31390,14.0,73810.5,0.53,-30.61,-30.83,0,*4F
1485615747.12,31391,14.0,73810.8,0.51,-30.77,-30.83,0,*4B
1485615748.39,31392,14.0,73810.0,0.51,-30.61,-30.77,0,*44
1485615749.6,31393,14.0,73808.8,0.53,-30.45,-30.51,0,*45
1485615750.84,31394,14.0,73810.5,0.53,-30.51,-30.61,0,*44
1485615752.08,31395,14.0,73808.0,0.51,-30.33,-30.61,0,*43
1485615753.33,31396,14.0,73808.5,0.51,-30.33,-30.61,0,*40
1485615754.57,31397,14.0,73812.8,0.51,-30.45,-30.61,0,*40
1485615755.84,31398,14.0,73810.8,0.51,-30.51,-30.61,0,*4A
1485615757.11,31399,14.0,73812.0,0.51,-30.51,-30.51,0,*48
1485615758.32,31400,14.0,73806.0,0.51,-30.33,-30.45,0,*4E
1485615759.56,31401,14.0,73810.5,0.51,-30.45,-30.61,0,*48
1485615760.8,31402,14.0,73812.8,0.51,-30.33,-30.51,0,*49
1485615762.05,31403,14.0,73810.3,0.51,-30.45,-30.61,0,*4A
1485615763.29,31404,14.0,73810.3,0.51,-30.33,-30.51,0,*4F
1485615764.54,31405,14.0,73814.0,0.47,-30.39,-30.39,0,*4D
1485615765.8,31406,14.0,73812.8,0.47,-30.39,-30.39,0,*4E
1485615767.06,31407,14.0,73808.8,0.47,-30.39,-30.39,0,*4F
1485615768.32,31408,14.0,73810.8,0.47,-30.39,-30.39,0,*40
1485615769.58,31409,14.0,73812.0,0.47,-30.39,-30.39,0,*41
1485615770.84,31410,14.0,73810.3,0.47,-30.39,-30.39,0,*49
1485615772.1,31411,14.0,73810.3,0.47,-30.39,-30.51,0,*46
1485615773.33,31412,14.0,73810.3,0.47,-30.39,-30.33,0,*41
1485615774.57,31413,14.0,73810.3,0.47,-30.33,-30.39,0,*40
1485615775.81,31414,14.0,73808.8,0.47,-30.33,-30.39,0,*47
1485615777.05,31415,14.0,73814.8,0.47,-30.33,-30.51,0,*48
1485615778.27,31416,14.0,73810.8,0.47,-30.33,-30.33,0,*4F
1485615779.51,31417,14.0,73812.3,0.47,-30.33,-30.51,0,*4A
1485615780.75,31418,14.0,73808.8,0.47,-30.33,-30.51,0,*45
1485615781.97,31419,14.0,73810.3,0.47,-30.33,-30.33,0,*40
1485615783.24,31420,14.0,73812.0,0.51,-30.17,-30.17,0,*4D
1485615784.48,31421,14.0,73810.3,0.47,-30.23,-30.51,0,*4E
1485615785.69,31422,14.0,73810.0,0.45,-30.33,-30.39,0,*40
1485615786.91,31423,14.0,73810.8,0.45,-30.33,-30.39,0,*41
1485615788.15,31424,14.0,73808.5,0.47,-30.23,-30.39,0,*45
1485615789.38,31425,14.0,73810.8,0.47,-30.33,-30.39,0,*45
1485615790.62,31426,14.0,73812.5,0.47,-30.33,-30.39,0,*46
1485615791.82,31427,14.0,73808.8,0.45,-30.23,-30.33,0,*4E
1485615793.01,31428,14.0,73810.3,0.45,-30.23,-30.23,0,*40
1485615794.2,31429,14.0,73810.0,0.45,-30.33,-30.33,0,*41
1485615795.4,31430,14.0,73810.5,0.45,-30.33,-30.33,0,*49
1485615796.61,31431,14.0,73814.3,0.47,-30.33,-30.33,0,*4A
1485615797.81,31432,14.0,73812.0,0.45,-30.33,-30.23,0,*4A
1485615799.02,31433,14.0,73808.5,0.47,-30.23,-30.33,0,*49
1485615800.21,31434,14.0,73806.5,0.45,-30.23,-30.23,0,*4D
1485615801.41,31435,14.0,73808.8,0.45,-30.33,-30.33,0,*4C
1485615802.6,31436,14.0,73808.3,0.45,-30.23,-30.23,0,*4F
1485615803.79,31437,14.0,73814.3,0.45,-30.23,-30.23,0,*4E
1485615805.0,31438,14.0,73808.5,0.45,-30.33,-30.39,0,*4B
1485615806.22,31439,14.0,73808.8,0.45,-30.33,-30.51,0,*44
1485615807.43,31440,14.0,73812.8,0.45,-30.33,-30.39,0,*44
1485615808.62,31441,14.0,73808.3,0.45,-30.23,-30.23,0,*4F
1485615809.81,31442,14.0,73812.8,0.45,-30.23,-30.23,0,*4C
1485615811.0,31443,14.0,73810.8,0.45,-30.23,-30.23,0,*4D
1485615812.19,31444,14.0,73814.0,0.45,-30.23,-30.23,0,*4A
1485615813.43,31445,14.0,73808.5,0.45,-30.01,-30.05,0,*4F
1485615814.68,31446,14.0,73810.8,0.45,-30.17,-30.17,0,*48
1485615815.91,31447,14.0,73808.8,0.47,-30.23,-30.39,0,*40
1485615817.1,31448,14.0,73812.3,0.45,-30.23,-30.23,0,*46
1485615818.3,31449,14.0,73808.8,0.45,-30.33,-30.33,0,*47
1485615819.49,31450,14.0,73812.3,0.45,-30.33,-30.23,0,*4E
1485615820.68,31451,14.0,73812.0,0.43,-30.27,-30.27,0,*48
1485615821.9,31452,14.0,73812.3,0.47,-30.33,-30.33,0,*4F
1485615823.09,31453,14.0,73812.3,0.45,-30.33,-30.33,0,*4C
1485615824.29,31454,14.0,73808.0,0.45,-30.33,-30.33,0,*4B
1485615825.47,31455,14.0,73810.3,0.43,-30.23,-30.23,0,*4C
1485615826.66,31456,14.0,73808.5,0.43,-30.23,-30.27,0,*4B
1485615827.84,31457,14.0,73814.8,0.43,-30.23,-30.27,0,*4A
1485615829.05,31458,14.0,73810.0,0.41,-30.23,-30.23,0,*43
1485615830.24,31459,14.0,73812.3,0.43,-30.27,-30.27,0,*40
1485615831.45,31460,14.0,73810.3,0.41,-30.23,-30.27,0,*4C
1485615832.64,31461,14.0,73812.3,0.43,-30.11,-30.27,0,*4E
1485615833.83,31462,14.0,73808.3,0.43,-30.23,-30.27,0,*4C
1485615835.01,31463,14.0,73814.5,0.43,-30.11,-30.23,0,*48
1485615836.25,31464,14.0,73810.3,0.41,-30.27,-30.39,0,*43
1485615837.48,31465,14.0,73810.0,0.43,-30.39,-30.55,0,*45
1485615838.69,31466,14.0,73814.0,0.41,-30.23,-30.23,0,*4E
1485615839.88,31467,14.0,73808.5,0.43,-30.23,-30.23,0,*4D
1485615841.06,31468,14.0,73810.5,0.43,-30.23,-30.27,0,*46
1485615842.25,31469,14.0,73808.0,0.43,-30.11,-30.23,0,*42
1485615843.46,31470,14.0,73808.5,0.43,-30.39,-30.45,0,*40
1485615844.71,31471,14.0,73810.8,0.41,-30.39,-30.55,0,*42
1485615845.92,31472,14.0,73810.8,0.43,-30.39,-30.45,0,*42
1485615847.15,31473,14.0,73808.5,0.41,-30.39,-30.45,0,*41
1485615848.36,31474,14.0,73812.3,0.41,-30.27,-30.27,0,*4D
1485615849.59,31475,14.0,73808.5,0.43,-30.39,-30.39,0,*4E
1485615850.84,31476,14.0,73810.5,0.41,-30.39,-30.39,0,*4F
1485615852.07,31477,14.0,73810.0,0.41,-30.39,-30.27,0,*41
1485615853.29,31478,14.0,73810.5,0.41,-30.27,-30.27,0,*41
1485615854.5,31479,14.0,73810.0,0.41,-30.27,-30.27,0,*40
1485615855.72,31480,14.0,73814.3,0.41,-30.27,-30.27,0,*46
1485615856.96,31481,14.0,73808.5,0.41,-30.27,-30.39,0,*48
1485615858.19,31482,14.0,73810.0,0.41,-30.39,-30.45,0,*4F
1485615859.42,31483,14.0,73810.5,0.41,-30.27,-30.39,0,*4A
1485615860.62,31484,14.0,73814.0,0.43,-30.27,-30.27,0,*40
1485615861.83,31485,14.0,73808.0,0.41,-30.23,-30.23,0,*43
1485615863.05,31486,14.0,73810.3,0.43,-30.39,-30.39,0,*42
1485615864.27,31487,14.0,73814.3,0.41,-30.27,-30.27,0,*41
1485615865.46,31488,14.0,73808.5,0.39,-30.27,-30.27,0,*41
1485615866.66,31489,14.0,73808.5,0.39,-30.27,-30.27,0,*40
1485615867.85,31490,14.0,73814.0,0.39,-30.33,-30.45,0,*49
1485615869.04,31491,14.0,73812.3,0.39,-30.45,-30.33,0,*48
1485615870.3,31492,14.0,73810.5,0.37,-30.51,-30.51,0,*44
1485615871.49,31493,14.0,73808.5,0.39,-30.45,-30.33,0,*4A
1485615872.73,31494,14.0,73812.0,0.37,-30.33,-30.51,0,*46
1485615873.92,31495,14.0,73812.8,0.39,-30.33,-30.45,0,*4C
1485615875.11,31496,14.0,73812.8,0.39,-30.33,-30.33,0,*4E
1485615876.37,31497,14.0,73812.3,0.37,-30.39,-30.39,0,*41
1485615877.56,31498,14.0,73810.5,0.39,-30.33,-30.33,0,*40
1485615878.77,31499,14.0,73808.5,0.39,-30.45,-30.51,0,*44
1485615880.03,31500,14.0,73812.5,0.37,-30.39,-30.51,0,*40
1485615881.22,31501,14.0,73814.0,0.39,-30.33,-30.45,0,*40
1485615882.48,31502,14.0,73812.0,0.37,-30.51,-30.55,0,*48
1485615883.74,31503,14.0,73810.3,0.37,-30.51,-30.55,0,*49
1485615885.01,31504,14.0,73814.8,0.37,-30.51,-30.51,0,*4A
1485615886.22,31505,14.0,73812.5,0.39,-30.39,-30.45,0,*4E
1485615887.47,31506,14.0,73808.5,0.37,-30.39,-30.39,0,*48
1485615888.72,31507,14.0,73810.5,0.37,-30.51,-30.67,0,*4C
1485615889.97,31508,14.0,73814.0,0.37,-30.39,-30.55,0,*4C
1485615891.22,31509,14.0,73810.0,0.39,-30.17,-30.17,0,*49
1485615892.46,31510,14.0,73812.3,0.39,-30.51,-30.51,0,*41
1485615893.72,31511,14.0,73814.5,0.37,-30.39,-30.51,0,*40
1485615894.98,31512,14.0,73810.3,0.37,-30.39,-30.51,0,*43
1485615896.23,31513,14.0,73812.0,0.37,-30.39,-30.55,0,*46
1485615897.45,31514,14.0,73812.3,0.35,-30.33,-30.51,0,*4D
1485615898.67,31515,14.0,73808.8,0.35,-30.33,-30.39,0,*42
1485615899.91,31516,14.0,73810.8,0.35,-30.51,-30.39,0,*45
1485615901.15,31517,14.0,73812.5,0.35,-30.55,-30.61,0,*4D
1485615902.39,31518,14.0,73810.3,0.35,-30.51,-30.39,0,*4B
1485615903.63,31519,14.0,73810.8,0.35,-30.39,-30.39,0,*44
1485615904.85,31520,14.0,73808.3,0.35,-30.39,-30.67,0,*45
1485615906.11,31521,14.0,73812.3,0.37,-30.51,-30.55,0,*49
1485615907.35,31522,14.0,73810.8,0.35,-30.55,-30.61,0,*4B
1485615908.62,31523,14.0,73814.8,0.33,-30.55,-30.61,0,*4C
1485615909.85,31524,14.0,73814.3,0.33,-30.45,-30.51,0,*49
1485615911.09,31525,14.0,73810.5,0.33,-30.45,-30.55,0,*4C
1485615912.34,31526,14.0,73814.8,0.33,-30.55,-30.55,0,*4E
1485615913.56,31527,14.0,73812.5,0.33,-30.45,-30.45,0,*4F
1485615914.81,31528,14.0,73814.0,0.33,-30.39,-30.55,0,*4A
1485615916.08,31529,14.0,73812.3,0.33,-30.55,-30.73,0,*45
1485615917.29,31530,14.0,73812.3,0.33,-30.45,-30.45,0,*49
1485615918.53,31531,14.0,73814.0,0.33,-30.27,-30.39,0,*47
1485615919.76,31532,14.0,73810.3,0.33,-30.39,-30.45,0,*40
1485615921.01,31533,14.0,73810.5,0.35,-30.51,-30.51,0,*4C
1485615922.22,31534,14.0,73810.5,0.33,-30.45,-30.45,0,*4D
1485615923.43,31535,14.0,73814.5,0.33,-30.45,-30.45,0,*4C
1485615924.65,31536,14.0,73814.5,0.33,-30.27,-30.45,0,*4B
1485615925.88,31537,14.0,73810.0,0.33,-30.23,-30.39,0,*45
1485615927.12,31538,14.0,73812.0,0.33,-30.45,-30.55,0,*40
1485615928.33,31539,14.0,73814.8,0.33,-30.45,-30.45,0,*40
1485615929.54,31540,14.0,73810.3,0.31,-30.45,-30.55,0,*4D
1485615930.75,31541,14.0,73810.8,0.31,-30.55,-30.45,0,*4C
1485615931.99,31542,14.0,73812.5,0.31,-30.39,-30.55,0,*44
1485615933.2,31543,14.0,73814.0,0.31,-30.39,-30.45,0,*44
1485615934.43,31544,14.0,73814.0,0.31,-30.55,-30.55,0,*48
1485615935.7,31545,14.0,73808.8,0.29,-30.61,-30.61,0,*40
1485615936.94,31546,14.0,73812.8,0.31,-30.55,-30.55,0,*4A
1485615938.21,31547,14.0,73812.3,0.29,-30.61,-30.61,0,*42
1485615939.45,31548,14.0,73812.8,0.31,-30.55,-30.73,0,*40
1485615940.72,31549,14.0,73812.3,0.29,-30.61,-30.95,0,*47
1485615941.97,31550,14.0,73810.8,0.29,-30.61,-30.67,0,*42
1485615943.22,31551,14.0,73814.0,0.29,-30.61,-30.67,0,*43
1485615944.49,31552,14.0,73812.8,0.29,-30.51,-30.77,0,*42
1485615945.74,31553,14.0,73814.5,0.29,-30.61,-30.83,0,*4B
1485615947.02,31554,14.0,73814.3,0.29,-30.61,-30.77,0,*47
1485615948.23,31555,14.0,73810.0,0.27,-30.45,-30.51,0,*4A
1485615949.43,31556,14.0,73810.3,0.27,-30.27,-30.33,0,*49
1485615950.68,31557,14.0,73808.0,0.27,-30.51,-30.61,0,*4E
1485615951.91,31558,14.0,73810.3,0.27,-30.61,-30.67,0,*44
1485615953.16,31559,14.0,73810.5,0.27,-30.61,-30.77,0,*44
1485615954.36,31560,14.0,73812.5,0.23,-30.67,-30.67,0,*4D
1485615955.56,31561,14.0,73812.0,0.27,-30.33,-30.45,0,*49
1485615956.75,31562,14.0,73812.3,0.27,-30.23,-30.33,0,*4A
1485615957.96,31563,14.0,73808.0,0.27,-30.27,-30.33,0,*4F
1485615959.18,31564,14.0,73808.5,0.23,-30.27,-30.39,0,*46
1485615960.37,31565,14.0,73808.3,0.27,-30.33,-30.45,0,*4D
1485615961.59,31566,14.0,73808.3,0.27,-30.39,-30.33,0,*45
1485615962.81,31567,14.0,73808.8,0.23,-30.27,-30.39,0,*45
1485615964.01,31568,14.0,73814.3,0.27,-30.33,-30.33,0,*41
1485615965.2,31569,14.0,73812.3,0.23,-30.33,-30.33,0,*44
1485615966.4,31570,14.0,73808.3,0.27,-30.27,-30.45,0,*4C
1485615967.62,31571,14.0,73814.3,0.23,-30.33,-30.39,0,*47
1485615968.82,31572,14.0,73810.5,0.27,-30.33,-30.33,0,*4A
1485615970.05,31573,14.0,73808.8,0.23,-30.39,-30.51,0,*41
1485615971.3,31574,14.0,73810.5,0.23,-30.51,-30.51,0,*48
1485615972.54,31575,14.0,73814.0,0.23,-30.51,-30.55,0,*4D
1485615973.75,31576,14.0,73812.3,0.27,-30.45,-30.51,0,*4B
1485615975.0,31577,14.0,73812.3,0.23,-30.51,-30.55,0,*4F
1485615976.24,31578,14.0,73810.8,0.23,-30.51,-30.55,0,*40
1485615977.47,31579,14.0,73812.8,0.23,-30.39,-30.51,0,*4B
1485615978.71,31580,14.0,73812.0,0.23,-30.39,-30.51,0,*4D
1485615979.95,31581,14.0,73808.8,0.23,-30.51,-30.51,0,*42
1485615981.19,31582,14.0,73810.5,0.23,-30.39,-30.55,0,*4B
1485615982.45,31583,14.0,73814.0,0.21,-30.39,-30.55,0,*48
1485615983.7,31584,14.0,73812.3,0.21,-30.45,-30.61,0,*43
1485615984.91,31585,14.0,73814.3,0.21,-30.45,-30.45,0,*44
1485615986.17,31586,14.0,73810.8,0.21,-30.55,-30.55,0,*47
1485615987.41,31587,14.0,73810.5,0.21,-30.45,-30.55,0,*47
1485615988.65,31588,14.0,73814.0,0.21,-30.45,-30.55,0,*48
1485615989.86,31589,14.0,73810.8,0.21,-30.45,-30.45,0,*48
1485615991.13,31590,14.0,73812.0,0.21,-30.55,-30.61,0,*47
1485615992.35,31591,14.0,73810.0,0.19,-30.45,-30.61,0,*4C
1485615993.6,31592,14.0,73808.3,0.21,-30.45,-30.61,0,*44
1485615994.86,31593,14.0,73812.8,0.21,-30.39,-30.55,0,*49
1485615996.05,31594,14.0,73814.5,0.19,-30.45,-30.45,0,*4F
1485615997.26,31595,14.0,73814.8,0.19,-30.39,-30.45,0,*45
1485615998.5,31596,14.0,73810.5,0.19,-30.39,-30.55,0,*47
1485615999.74,31597,14.0,73808.8,0.19,-30.39,-30.39,0,*4C
1485616000.95,31598,14.0,73808.8,0.19,-30.45,-30.55,0,*42
1485616002.2,31599,14.0,73812.8,0.19,-30.73,-30.73,0,*42
1485616003.48,31600,14.0,73812.0,0.21,-30.73,-30.89,0,*4F
1485616004.73,31601,14.0,73814.8,0.19,-30.73,-30.77,0,*44
1485616005.98,31602,14.0,73808.3,0.19,-30.73,-30.89,0,*46
1485616007.24,31603,14.0,73814.5,0.19,-30.73,-30.77,0,*46
1485616008.5,31604,14.0,73812.0,0.19,-30.73,-30.77,0,*41
1485616009.75,31605,14.0,73810.3,0.17,-30.77,-30.83,0,*41
1485616011.01,31606,14.0,73812.8,0.17,-30.77,-30.95,0,*45
1485616012.28,31607,14.0,73812.0,0.17,-30.77,-30.95,0,*44
1485616013.51,31608,14.0,73812.8,0.15,-30.77,-30.83,0,*4E
1485616014.76,31609,14.0,73812.8,0.17,-30.77,-30.83,0,*4D
1485616015.99,31610,14.0,73810.5,0.15,-30.77,-30.83,0,*47
1485616017.22,31611,14.0,73810.5,0.15,-30.77,-30.83,0,*46
1485616018.42,31612,14.0,73810.8,0.15,-30.67,-30.67,0,*4E
1485616019.62,31613,14.0,73814.0,0.15,-30.27,-30.45,0,*4B
1485616020.85,31614,14.0,73814.0,0.15,-30.45,-30.61,0,*4E
1485616022.1,31615,14.0,73812.8,0.15,-30.51,-30.61,0,*4A
1485616023.33,31616,14.0,73814.3,0.15,-30.39,-30.39,0,*4A
1485616024.57,31617,14.0,73810.8,0.15,-30.39,-30.39,0,*4B
1485616025.82,31618,14.0,73812.3,0.15,-30.61,-30.61,0,*44
1485616027.09,31619,14.0,73812.3,0.13,-30.55,-30.73,0,*47
1485616028.34,31620,14.0,73812.5,0.15,-30.51,-30.61,0,*4C
1485616029.61,31621,14.0,73814.0,0.13,-30.51,-30.55,0,*4C
1485616030.83,31622,14.0,73814.8,0.15,-30.45,-30.61,0,*4B
1485616032.1,31623,14.0,73810.5,0.13,-30.55,-30.73,0,*4E
1485616033.35,31624,14.0,73814.3,0.13,-30.55,-30.67,0,*4C
1485616034.58,31625,14.0,73808.3,0.11,-30.67,-30.67,0,*4E
1485616035.86,31626,14.0,73810.0,0.13,-30.73,-30.73,0,*4F
1485616037.11,31627,14.0,73812.3,0.11,-30.67,-30.73,0,*49
1485616038.35,31628,14.0,73810.0,0.11,-30.55,-30.83,0,*48
1485616039.6,31629,14.0,73814.8,0.13,-30.67,-30.55,0,*41
1485616040.84,31630,14.0,73812.3,0.11,-30.55,-30.67,0,*4B
1485616042.09,31631,14.0,73810.5,0.11,-30.67,-30.73,0,*4E
1485616043.31,31632,14.0,73814.8,0.11,-30.67,-30.67,0,*48
1485616044.57,31633,14.0,73810.8,0.11,-30.55,-30.55,0,*49
1485616045.82,31634,14.0,73812.5,0.13,-30.55,-30.67,0,*4D
1485616047.08,31635,14.0,73812.0,0.11,-30.55,-30.55,0,*4F
1485616048.32,31636,14.0,73810.8,0.11,-30.51,-30.67,0,*49
1485616049.56,31637,14.0,73810.3,0.11,-30.55,-30.67,0,*4C
1485616050.8,31638,14.0,73810.0,0.09,-30.55,-30.61,0,*7C
1485616052.04,31639,14.0,73810.5,0.07,-30.33,-30.51,0,*70
1485616053.25,31640,14.0,73808.3,0.09,-30.33,-30.51,0,*70
1485616054.48,31641,14.0,73812.0,0.09,-30.51,-30.55,0,*71
1485616055.71,31642,14.06,73812.5,0.09,-30.39,-30.51,0,*78
1485616056.92,31643,14.0,73812.5,0.09,-30.33,-30.51,0,*73
1485616058.14,31644,14.0,73812.3,0.09,-30.39,-30.55,0,*7A
1485616059.35,31645,14.0,73816.3,0.09,-30.33,-30.51,0,*75
1485616060.61,31646,14.0,73814.0,0.07,-30.51,-30.55,0,*78
1485616061.84,31647,14.0,73814.5,0.09,-30.51,-30.55,0,*77
1485616063.11,31648,14.0,73808.8,0.07,-30.55,-30.73,0,*76
1485616064.39,31649,14.0,73810.5,0.07,-30.77,-30.77,0,*73
1485616065.66,31650,14.0,73808.0,0.07,-30.77,-30.89,0,*7A
1485616066.93,31651,14.0,73810.8,0.07,-30.73,-30.89,0,*7F
1485616068.21,31652,14.0,73812.0,0.07,-30.73,-30.89,0,*7C
1485616069.42,31653,14.0,73810.5,0.05,-30.67,-30.95,0,*77
1485616070.69,31654,14.0,73814.5,0.07,-30.73,-30.89,0,*7A
1485616071.96,31655,14.0,73812.3,0.07,-30.73,-30.89,0,*7B
1485616073.24,31656,14.0,73814.5,0.07,-30.73,-30.89,0,*78
1485616074.51,31657,14.0,73810.5,0.07,-30.73,-30.77,0,*78
1485616075.75,31658,14.0,73812.0,0.05,-30.77,-30.95,0,*7D
1485616076.95,31659,14.0,73812.8,0.05,-30.83,-30.83,0,*70
1485616078.19,31660,14.0,73814.0,0.01,-30.89,-30.89,0,*7E
1485616079.39,31661,14.0,73814.5,0.01,-30.83,-30.83,0,*7F
1485616080.61,31662,14.0,73814.3,0.01,-30.73,-30.83,0,*73
1485616081.83,31663,14.0,73814.5,0.05,-30.67,-30.77,0,*78
1485616083.05,31664,14.0,73812.0,0.01,-30.67,-30.73,0,*7F
1485616084.25,31665,14.0,73812.8,0.01,-30.67,-30.83,0,*71
1485616085.47,31666,14.0,73812.0,0.01,-30.67,-30.73,0,*7D
1485616086.71,31667,14.0,73814.0,0.01,-30.61,-30.61,0,*79
1485616087.91,31668,14.0,73814.3,0.05,-30.39,-30.45,0,*79
1485616089.12,31669,14.0,73812.0,0.01,-30.45,-30.51,0,*72
1485616090.37,31670,14.0,73814.3,-0.01,-30.45,-30.61,0,*54
1485616091.58,31671,14.0,73814.3,0.01,-30.61,-30.67,0,*78
1485616092.81,31672,14.0,73810.8,-0.01,-30.67,-30.83,0,*5A
1485616094.04,31673,14.0,73814.0,-0.01,-30.83,-30.83,0,*51
1485616095.3,31674,14.0,73810.3,-0.01,-30.67,-30.73,0,*53
1485616096.55,31675,14.0,73808.5,-0.01,-30.67,-30.73,0,*52
1485616097.8,31676,14.0,73812.0,-0.01,-30.67,-30.73,0,*51
1485616099.08,31677,14.0,73808.0,-0.01,-30.61,-30.73,0,*56
1485616100.33,31678,14.0,73812.3,-0.01,-30.67,-30.73,0,*5F
1485616101.58,31679,14.0,73814.3,-0.01,-30.67,-30.73,0,*5E
1485616102.83,31680,14.0,73810.5,-0.01,-30.61,-30.67,0,*5B
1485616104.08,31681,14.0,73808.8,-0.03,-30.73,-30.73,0,*5E
1485616105.29,31682,14.0,73812.3,-0.03,-30.67,-30.67,0,*5D
1485616106.54,31683,14.0,73810.8,-0.01,-30.61,-30.67,0,*58
1485616107.77,31684,14.0,73812.5,-0.03,-30.67,-30.77,0,*5A
1485616109.02,31685,14.0,73808.5,-0.03,-30.73,-30.89,0,*5F